Flag for U.S.A. Weather past 2 weeks in Fairbanks, Alaska, U.S.A.

Now
45 °F

More clouds than sun.


Feels Like: 42 °F
Forecast: 35 / 53 °F
Wind: 5 mph from Northeast

Location: Wainwright U. S. Army Airfield


UV Index: 0 (Low)

Visibility: 25 mi


Pressure: 29.55 "Hg

Humidity: 53%

Dew point: 28 °F

Location of FairbanksLocation

Historic Weather in Fairbanks

°F

Fairbanks temperature yesterday

Maximum temperature yesterday: 54 °F (at 2:55 PM)
Minimum temperature yesterday: 31 °F (at 4:56 AM)
Average temperature yesterday: 44 °F

Past Weeks' High & Low Weather Summary

 TemperatureHumidityPressure
High55 °F (Apr 21, 2:55 PM)93% (Apr 14, 6:55 AM)30.28 "Hg (Apr 14, 6:55 AM)
Low-13 °F (Apr 10, 6:55 AM)24% (Apr 23, 2:55 PM)29.38 "Hg (Apr 17, 8:55 PM)
Average34 °F57%29.83 "Hg
* Reported Apr 9 8:55 PM — Apr 24 8:55 PM, Fairbanks, Weather by CustomWeather, © 2014

Note: Actual official high and low records may vary slightly from our data, if they occured in-between our weather recording intervals... More about our weather records

Advertising

Historic Weather Conditions — Data for Previous 24 hours

 ConditionsComfort  
Time TempWeatherWind HumidityBarometerVisibility
8:55 PM
Apr 24
46 °FOvercast.6 mph50%29.54 "Hg25 mi
7:55 PM48 °FOvercast.13 mph43%29.55 "Hg25 mi
6:55 PM50 °FMore clouds than sun.12 mph40%29.55 "Hg25 mi
5:55 PM52 °FMostly cloudy.12 mph41%29.55 "Hg25 mi
4:55 PM52 °FCloudy.16 mph41%29.55 "Hg25 mi
3:55 PM54 °FPartly sunny.10 mph41%29.56 "Hg25 mi
2:55 PM52 °FScattered showers. Partly sunny.6 mph44%29.57 "Hg25 mi
1:55 PM52 °FLight rain. Partly sunny.8 mph44%29.57 "Hg85 mi
12:55 PM52 °FBroken clouds.No wind44%29.57 "Hg85 mi
11:55 AM52 °FPartly sunny.5 mph41%29.59 "Hg85 mi
10:55 AM48 °FPartly sunny.3 mph46%29.61 "Hg85 mi
9:55 AM43 °FPartly sunny.No wind57%29.62 "Hg85 mi
8:55 AM41 °FScattered clouds.No wind61%29.63 "Hg85 mi
7:55 AM39 °FScattered clouds.No wind61%29.64 "Hg85 mi
6:55 AM34 °FScattered clouds.5 mph70%29.64 "Hg85 mi
5:56 AM35 °FClear.7 mph70%29.64 "Hg10 mi
4:56 AM36 °FClear.12 mph67%29.65 "Hg10 mi
3:56 AM37 °FClear.9 mph65%29.65 "Hg10 mi
2:56 AM38 °FClear.10 mph63%29.64 "Hg10 mi
1:56 AM39 °FClear.9 mph62%29.64 "Hg10 mi
12:56 AM42 °FOvercast.8 mph55%29.63 "Hg10 mi
11:56 PM
Apr 23
42 °FPassing clouds.8 mph53%29.64 "Hg10 mi
10:56 PM44 °FPassing clouds.8 mph49%29.64 "Hg10 mi
Weather by CustomWeather, © 2014

See weather overview